Powrót do katalogu

STARLINK-33549

AktywnyŁącznośćVLEO
NORAD 62289·PAYLOAD·🇺🇸 United States

Wystrzelony Dec 8, 2024 z Cape Canaveral Space Force Station

Loading…

Następne Przeloty (najbliższe 24 godziny)

TLE

ŚwieżeSource: CelesTrak SupGP

Epoka: Sep 14, 2026, 20:56 UTC

1 62289C 24237Y   26257.87270833  .00041673  00000+0  15098-2 0  2577
2 62289  42.9995 228.1369 0001331 259.9948  72.3725 15.27548451    11

Śledź STARLINK-33549 w czasie rzeczywistym z AllMySat

Download on the App Store